Погода в Уси

Китай     28°05′56″N   119°32′09″E
темп.,
°C
ветер,
м/с
пор.,
м/с
влажн.,
%
обл.,
%
осадки,
мм/ч
давл.,
гПа
погр.,
м
8 мая, сб
сб823:00+18ю2293100 0.3 101338
02:00+17зюз1199100 7.1 101135
05:00+17юв1199100 7.8 1010106
08:00+18зсз1198100 12.8 1011150
11:00+19зсз1292100 0.9 1011190
14:00+21юз2280100 1.4 1010610
17:00+19ю239299 0.3 1009123
20:00+15ююз229329 0.3 101220
9 мая, вс
вс923:00+14ююз2294100 0.0 101321
02:00+14ююз2291100 0.0 101115
05:00+14ю228690 0.0 101114
08:00+20ююв11631 0.0 1012209
11:00+27юв13350 0.0 10101283
14:00+28всв223611 0.0 10081946
17:00+25в12601 0.0 100862
20:00+19ююв228085 0.0 101029
10 мая, пн
пн1023:00+17ю22865 0.0 101045
02:00+17ю22973 0.0 100936
05:00+17ю229814 0.0 100953
08:00+23ю127725 0.0 1009396
11:00+29зюз045431 0.0 10081569
14:00+30з1350100 0.0 10051973
17:00+24ююз3382100 1.3 100674
20:00+20ююз2296100 2.8 100856
11 мая, вт
вт1123:00+19ююз2296100 2.1 100948
02:00+18юз119697 5.2 100711
05:00+18ссв019899 0.3 100812
08:00+21в1191100 0.6 1008315
11:00+25ссз1373100 0.6 1007779
14:00+23ссз018599 2.4 1006203
17:00+24с2285100 0.9 1005107
20:00+20сз23100100 33.6 1007201
12 мая, ср
ср1223:00+19ююз2299100 11.1 1009103
02:00+18юз2298100 11.6 100769
05:00+18юз1197100 0.2 100721
08:00+21зюз1291100 1.4 1008349
11:00+25сз137796 0.6 1007876
14:00+24зсз1284100 3.3 1006549
17:00+21юз1196100 1.6 100732
20:00+20ююз2297100 2.4 100846